QPF
0.01 0.03 0.07 0.07 0.05 0.04 0.02 0.02 0.01 0.01 0.01 0.00 0.00 0.00 0.00 0.01 0.02 0.09 0.16 0.12 0.05 0.05 0.06 0.06 0.07 0.09 0.06 0.03 0.04 0.07 0.08 0.08 0.09 0.10 0.10 0.10 0.08 0.05 0.05 0.08 0.10 0.13 0.14 0.16 0.16 0.14 0.10 0.08 0.08
0.01 0.04 0.07 0.11 0.05 0.01 0.02 0.02 0.01 0.01 0.01 0.00 0.00 0.00 0.00 0.02 0.03 0.09 0.12 0.10 0.06 0.06 0.06 0.10 0.14 0.12 0.06 0.04 0.04 0.08 0.12 0.08 0.08 0.09 0.08 0.09 0.08 0.06 0.08 0.09 0.14 0.19 0.23 0.24 0.21 0.17 0.12 0.09 0.08
0.02 0.04 0.06 0.06 0.02 0.01 0.01 0.01 0.00 0.00 0.00 0.00 0.00 0.00 0.02 0.04 0.06 0.09 0.09 0.08 0.08 0.09 0.14 0.16 0.12 0.08 0.05 0.04 0.03 0.03 0.05 0.07 0.07 0.06 0.06 0.08 0.08 0.08 0.10 0.10 0.15 0.24 0.30 0.27 0.23 0.16 0.12 0.09 0.07
0.02 0.04 0.04 0.03 0.01 0.01 0.00 0.00 0.00 0.00 0.00 0.00 0.00 0.01 0.04 0.06 0.07 0.08 0.09 0.08 0.09 0.13 0.12 0.11 0.10 0.08 0.06 0.04 0.03 0.03 0.03 0.04 0.06 0.06 0.06 0.07 0.07 0.08 0.09 0.13 0.19 0.26 0.27 0.25 0.19 0.15 0.11 0.07 0.06
0.03 0.05 0.04 0.02 0.02 0.01 0.00 0.00 0.00 0.00 0.00 0.00 0.00 0.01 0.04 0.06 0.06 0.06 0.06 0.05 0.06 0.08 0.08 0.08 0.09 0.08 0.06 0.05 0.03 0.03 0.04 0.04 0.06 0.07 0.06 0.07 0.08 0.07 0.09 0.13 0.17 0.20 0.23 0.22 0.17 0.12 0.08 0.06 0.06
0.03 0.06 0.04 0.01 0.01 0.01 0.01 0.00 0.00 0.00 0.00 0.00 0.00 0.00 0.03 0.06 0.05 0.05 0.05 0.05 0.05 0.05 0.06 0.08 0.09 0.07 0.05 0.05 0.04 0.05 0.05 0.05 0.06 0.06 0.05 0.07 0.08 0.08 0.09 0.09 0.10 0.12 0.20 0.17 0.12 0.09 0.09 0.08 0.08
0.02 0.02 0.02 0.01 0.01 0.01 0.01 0.00 0.00 0.00 0.00 0.00 0.00 0.00 0.03 0.06 0.04 0.03 0.03 0.04 0.04 0.05 0.09 0.15 0.13 0.10 0.07 0.06 0.05 0.06 0.05 0.05 0.06 0.06 0.06 0.07 0.09 0.10 0.10 0.09 0.09 0.14 0.20 0.13 0.09 0.08 0.10 0.12 0.15
0.05 0.01 0.01 0.01 0.01 0.01 0.00 0.00 0.00 0.00 0.01 0.00 0.00 0.00 0.01 0.02 0.01 0.02 0.02 0.03 0.04 0.06 0.07 0.09 0.09 0.09 0.06 0.05 0.06 0.06 0.06 0.06 0.07 0.09 0.08 0.08 0.10 0.11 0.12 0.12 0.15 0.24 0.19 0.11 0.09 0.09 0.09 0.12 0.17
0.02 0.02 0.02 0.01 0.01 0.01 0.00 0.00 0.00 0.00 0.01 0.00 0.00 0.00 0.00 0.00 0.01 0.01 0.02 0.04 0.06 0.07 0.07 0.07 0.06 0.06 0.05 0.06 0.08 0.08 0.08 0.09 0.11 0.11 0.11 0.10 0.08 0.09 0.12 0.15 0.24 0.31 0.19 0.13 0.10 0.09 0.10 0.12 0.12
0.01 0.02 0.03 0.02 0.01 0.01 0.00 0.00 0.00 0.00 0.01 0.01 0.01 0.00 0.00 0.00 0.01 0.01 0.02 0.04 0.07 0.08 0.06 0.07 0.07 0.05 0.04 0.06 0.06 0.05 0.06 0.08 0.12 0.14 0.12 0.11 0.10 0.09 0.12 0.22 0.29 0.26 0.17 0.13 0.11 0.09 0.09 0.08 0.07
0.00 0.01 0.03 0.04 0.01 0.01 0.00 0.00 0.00 0.00 0.00 0.01 0.01 0.01 0.01 0.01 0.01 0.02 0.03 0.05 0.09 0.07 0.07 0.09 0.07 0.06 0.04 0.04 0.04 0.04 0.07 0.08 0.10 0.10 0.11 0.12 0.13 0.15 0.19 0.19 0.19 0.17 0.14 0.12 0.10 0.07 0.04 0.05 0.05
0.00 0.00 0.01 0.02 0.01 0.00 0.00 0.00 0.00 0.00 0.00 0.00 0.00 0.00 0.01 0.01 0.02 0.02 0.04 0.04 0.05 0.05 0.05 0.05 0.07 0.06 0.04 0.03 0.03 0.04 0.09 0.09 0.08 0.08 0.11 0.13 0.15 0.16 0.15 0.11 0.10 0.14 0.12 0.09 0.07 0.05 0.04 0.04 0.03
0.00 0.01 0.01 0.01 0.00 0.00 0.00 0.00 0.00 0.00 0.00 0.00 0.00 0.01 0.01 0.01 0.01 0.01 0.02 0.03 0.03 0.04 0.05 0.05 0.05 0.03 0.03 0.03 0.03 0.05 0.07 0.06 0.06 0.08 0.11 0.11 0.11 0.09 0.08 0.10 0.11 0.13 0.09 0.06 0.04 0.05 0.04 0.03 0.03
0.00 0.01 0.01 0.00 0.00 0.00 0.00 0.00 0.00 0.00 0.00 0.00 0.00 0.00 0.00 0.00 0.00 0.00 0.01 0.02 0.01 0.02 0.04 0.05 0.05 0.03 0.02 0.03 0.06 0.05 0.06 0.06 0.08 0.10 0.08 0.09 0.08 0.06 0.07 0.12 0.11 0.10 0.07 0.05 0.04 0.03 0.03 0.03 0.03
0.01 0.02 0.01 0.00 0.00 0.00 0.00 0.00 0.00 0.00 0.00 0.00 0.00 0.00 0.00 0.00 0.00 0.01 0.01 0.01 0.01 0.01 0.02 0.04 0.05 0.04 0.02 0.03 0.05 0.04 0.04 0.05 0.06 0.06 0.08 0.10 0.07 0.05 0.05 0.07 0.08 0.08 0.08 0.06 0.05 0.04 0.04 0.04 0.04
0.03 0.03 0.01 0.01 0.00 0.00 0.00 0.00 0.00 0.00 0.00 0.00 0.00 0.00 0.00 0.00 0.00 0.01 0.01 0.01 0.01 0.01 0.02 0.02 0.03 0.02 0.01 0.02 0.02 0.03 0.05 0.04 0.05 0.07 0.17 0.14 0.16 0.11 0.06 0.06 0.06 0.06 0.05 0.06 0.06 0.05 0.05 0.05 0.05
0.03 0.04 0.02 0.01 0.01 0.01 0.01 0.01 0.01 0.00 0.00 0.00 0.00 0.00 0.00 0.00 0.00 0.01 0.01 0.01 0.01 0.01 0.01 0.01 0.01 0.01 0.01 0.01 0.01 0.02 0.02 0.03 0.05 0.08 0.12 0.20 0.26 0.14 0.08 0.05 0.04 0.04 0.03 0.04 0.04 0.04 0.05 0.06 0.05
0.02 0.02 0.02 0.01 0.01 0.01 0.01 0.01 0.01 0.01 0.01 0.00 0.00 0.00 0.00 0.00 0.00 0.01 0.01 0.01 0.01 0.01 0.01 0.01 0.02 0.02 0.01 0.01 0.02 0.02 0.03 0.04 0.04 0.05 0.06 0.11 0.18 0.16 0.10 0.07 0.05 0.03 0.02 0.03 0.04 0.03 0.04 0.04 0.05
0.01 0.01 0.01 0.01 0.01 0.01 0.01 0.01 0.01 0.01 0.02 0.01 0.01 0.00 0.00 0.00 0.00 0.00 0.01 0.00 0.00 0.00 0.01 0.01 0.02 0.03 0.03 0.03 0.02 0.03 0.04 0.05 0.04 0.03 0.04 0.05 0.10 0.11 0.08 0.05 0.04 0.03 0.02 0.03 0.03 0.03 0.03 0.04 0.07
0.00 0.00 0.01 0.01 0.01 0.01 0.01 0.02 0.01 0.01 0.01 0.01 0.01 0.01 0.00 0.00 0.00 0.00 0.00 0.00 0.00 0.00 0.00 0.01 0.01 0.01 0.02 0.02 0.01 0.02 0.04 0.05 0.04 0.03 0.03 0.04 0.05 0.06 0.04 0.02 0.02 0.01 0.01 0.02 0.03 0.03 0.03 0.05 0.08
0.00 0.00 0.01 0.01 0.01 0.01 0.02 0.02 0.01 0.01 0.01 0.01 0.01 0.02 0.01 0.01 0.00 0.01 0.00 0.00 0.00 0.00 0.00 0.00 0.00 0.01 0.01 0.01 0.01 0.02 0.03 0.03 0.02 0.03 0.03 0.03 0.03 0.03 0.03 0.02 0.02 0.02 0.03 0.04 0.04 0.04 0.05 0.07 0.10
0.00 0.00 0.00 0.01 0.02 0.01 0.01 0.01 0.01 0.02 0.04 0.04 0.05 0.04 0.02 0.02 0.02 0.01 0.01 0.00 0.01 0.00 0.01 0.01 0.01 0.02 0.03 0.02 0.01 0.01 0.02 0.02 0.02 0.02 0.02 0.02 0.03 0.02 0.03 0.02 0.03 0.04 0.06 0.07 0.08 0.10 0.11 0.11 0.11
0.00 0.00 0.00 0.01 0.03 0.03 0.01 0.02 0.02 0.02 0.05 0.05 0.04 0.03 0.02 0.02 0.02 0.01 0.01 0.01 0.00 0.01 0.01 0.01 0.02 0.02 0.02 0.01 0.01 0.01 0.01 0.01 0.01 0.01 0.01 0.01 0.02 0.02 0.02 0.03 0.04 0.06 0.08 0.09 0.10 0.10 0.10 0.08 0.07
0.00 0.01 0.01 0.02 0.04 0.05 0.02 0.02 0.02 0.02 0.02 0.04 0.03 0.02 0.02 0.01 0.01 0.01 0.01 0.00 0.00 0.01 0.01 0.01 0.01 0.02 0.02 0.02 0.01 0.01 0.01 0.01 0.02 0.02 0.02 0.02 0.02 0.02 0.02 0.03 0.04 0.05 0.07 0.07 0.06 0.05 0.05 0.05 0.06
0.00 0.01 0.02 0.03 0.03 0.04 0.02 0.03 0.02 0.01 0.01 0.02 0.02 0.02 0.02 0.01 0.01 0.01 0.01 0.00 0.01 0.02 0.02 0.02 0.02 0.01 0.01 0.01 0.01 0.01 0.02 0.02 0.02 0.02 0.02 0.02 0.02 0.02 0.02 0.03 0.04 0.04 0.04 0.03 0.03 0.03 0.03 0.04 0.05
0.00 0.00 0.01 0.01 0.02 0.03 0.02 0.03 0.03 0.02 0.01 0.01 0.01 0.02 0.01 0.01 0.01 0.00 0.00 0.01 0.07 0.08 0.04 0.04 0.04 0.01 0.01 0.01 0.02 0.02 0.03 0.03 0.03 0.03 0.03 0.04 0.03 0.03 0.03 0.02 0.02 0.03 0.03 0.02 0.02 0.02 0.03 0.03 0.03
0.00 0.00 0.00 0.00 0.01 0.01 0.03 0.05 0.04 0.03 0.02 0.02 0.02 0.02 0.02 0.01 0.00 0.01 0.01 0.05 0.07 0.04 0.02 0.02 0.02 0.01 0.02 0.03 0.03 0.04 0.04 0.04 0.04 0.04 0.05 0.04 0.03 0.02 0.02 0.02 0.02 0.02 0.02 0.02 0.02 0.02 0.02 0.02 0.02
0.00 0.00 0.00 0.01 0.02 0.02 0.02 0.04 0.03 0.04 0.05 0.04 0.04 0.03 0.03 0.02 0.01 0.02 0.02 0.06 0.07 0.03 0.01 0.01 0.01 0.03 0.04 0.04 0.04 0.07 0.05 0.05 0.03 0.03 0.02 0.02 0.01 0.01 0.02 0.02 0.01 0.01 0.02 0.02 0.01 0.01 0.01 0.02 0.02
0.00 0.01 0.01 0.01 0.01 0.03 0.02 0.02 0.03 0.04 0.06 0.09 0.05 0.03 0.02 0.02 0.02 0.02 0.02 0.02 0.02 0.02 0.03 0.04 0.03 0.04 0.04 0.03 0.03 0.05 0.05 0.06 0.03 0.02 0.02 0.02 0.01 0.01 0.02 0.02 0.01 0.02 0.02 0.02 0.02 0.02 0.02 0.02 0.03
0.00 0.00 0.00 0.02 0.01 0.01 0.01 0.01 0.02 0.03 0.04 0.07 0.05 0.03 0.02 0.01 0.01 0.01 0.01 0.02 0.02 0.03 0.06 0.09 0.09 0.04 0.02 0.02 0.02 0.02 0.02 0.02 0.02 0.02 0.02 0.02 0.02 0.02 0.03 0.02 0.02 0.02 0.02 0.03 0.03 0.04 0.04 0.05 0.05
MSLP
1004.06 1005.35 1006.87 1008.44 1009.89 1011.08 1011.89 1012.31 1012.38 1012.21 1011.92 1011.66 1011.51 1011.52 1011.66 1011.85 1012.00 1012.00 1011.78 1011.31 1010.60 1009.70 1008.70 1007.69 1006.74 1005.93 1005.27 1004.78 1004.45 1004.28 1004.26 1004.40 1004.68 1005.10 1005.66 1006.34 1007.09 1007.88 1008.67 1009.43 1010.12 1010.74 1011.29 1011.79 1012.25 1012.69 1013.13 1013.56 1013.98
1004.42 1005.96 1007.63 1009.25 1010.64 1011.68 1012.29 1012.49 1012.35 1012.00 1011.60 1011.28 1011.12 1011.14 1011.31 1011.55 1011.74 1011.78 1011.62 1011.23 1010.63 1009.89 1009.09 1008.29 1007.56 1006.94 1006.45 1006.07 1005.80 1005.64 1005.59 1005.65 1005.85 1006.18 1006.65 1007.23 1007.90 1008.60 1009.31 1009.98 1010.59 1011.14 1011.63 1012.09 1012.53 1012.96 1013.40 1013.84 1014.28
1004.96 1006.70 1008.47 1010.08 1011.37 1012.22 1012.61 1012.58 1012.23 1011.73 1011.24 1010.88 1010.72 1010.77 1010.97 1011.24 1011.45 1011.52 1011.40 1011.08 1010.59 1010.00 1009.37 1008.78 1008.27 1007.86 1007.54 1007.30 1007.11 1006.99 1006.93 1006.96 1007.09 1007.35 1007.73 1008.22 1008.79 1009.40 1010.01 1010.59 1011.11 1011.59 1012.03 1012.45 1012.87 1013.29 1013.73 1014.18 1014.62
1005.59 1007.47 1009.28 1010.83 1011.98 1012.64 1012.82 1012.58 1012.08 1011.47 1010.92 1010.56 1010.42 1010.50 1010.74 1011.01 1011.24 1011.32 1011.22 1010.94 1010.55 1010.08 1009.63 1009.23 1008.92 1008.70 1008.54 1008.43 1008.34 1008.27 1008.22 1008.24 1008.33 1008.54 1008.85 1009.26 1009.74 1010.26 1010.77 1011.26 1011.70 1012.11 1012.50 1012.88 1013.28 1013.70 1014.13 1014.58 1015.02
1006.23 1008.16 1009.94 1011.39 1012.38 1012.86 1012.86 1012.49 1011.90 1011.25 1010.71 1010.38 1010.29 1010.41 1010.66 1010.95 1011.16 1011.23 1011.14 1010.91 1010.58 1010.23 1009.92 1009.68 1009.54 1009.47 1009.46 1009.45 1009.44 1009.42 1009.41 1009.42 1009.50 1009.67 1009.93 1010.28 1010.69 1011.12 1011.55 1011.95 1012.32 1012.67 1013.01 1013.37 1013.74 1014.15 1014.58 1015.02 1015.44
1006.77 1008.66 1010.33 1011.64 1012.47 1012.81 1012.70 1012.27 1011.67 1011.07 1010.61 1010.36 1010.34 1010.50 1010.78 1011.06 1011.25 1011.31 1011.22 1011.02 1010.75 1010.49 1010.29 1010.18 1010.16 1010.21 1010.29 1010.36 1010.41 1010.43 1010.43 1010.45 1010.53 1010.69 1010.93 1011.23 1011.59 1011.95 1012.31 1012.64 1012.94 1013.23 1013.53 1013.85 1014.21 1014.61 1015.03 1015.45 1015.86
1007.10 1008.86 1010.38 1011.52 1012.20 1012.45 1012.31 1011.91 1011.39 1010.91 1010.58 1010.45 1010.52 1010.74 1011.03 1011.30 1011.48 1011.52 1011.44 1011.26 1011.06 1010.88 1010.77 1010.74 1010.81 1010.92 1011.05 1011.15 1011.22 1011.25 1011.27 1011.31 1011.40 1011.56 1011.79 1012.08 1012.39 1012.71 1013.01 1013.27 1013.52 1013.75 1014.01 1014.30 1014.64 1015.02 1015.43 1015.84 1016.23
1007.19 1008.76 1010.07 1011.03 1011.60 1011.80 1011.69 1011.39 1011.04 1010.74 1010.58 1010.60 1010.77 1011.05 1011.35 1011.61 1011.78 1011.81 1011.74 1011.61 1011.46 1011.35 1011.31 1011.35 1011.45 1011.59 1011.72 1011.82 1011.88 1011.91 1011.93 1011.98 1012.09 1012.27 1012.51 1012.79 1013.09 1013.38 1013.63 1013.84 1014.03 1014.21 1014.42 1014.68 1015.00 1015.36 1015.76 1016.15 1016.53
1007.06 1008.39 1009.48 1010.27 1010.75 1010.94 1010.92 1010.78 1010.63 1010.54 1010.57 1010.74 1011.01 1011.33 1011.65 1011.90 1012.05 1012.09 1012.05 1011.97 1011.88 1011.84 1011.86 1011.94 1012.06 1012.19 1012.30 1012.37 1012.40 1012.41 1012.44 1012.50 1012.63 1012.84 1013.10 1013.40 1013.69 1013.96 1014.17 1014.34 1014.48 1014.61 1014.78 1015.00 1015.29 1015.64 1016.02 1016.40 1016.77
1006.78 1007.87 1008.74 1009.38 1009.79 1010.01 1010.11 1010.15 1010.21 1010.33 1010.55 1010.84 1011.19 1011.54 1011.86 1012.09 1012.24 1012.30 1012.29 1012.27 1012.26 1012.29 1012.37 1012.48 1012.60 1012.71 1012.78 1012.81 1012.81 1012.80 1012.82 1012.90 1013.06 1013.30 1013.60 1013.91 1014.22 1014.47 1014.67 1014.80 1014.89 1014.99 1015.11 1015.30 1015.56 1015.88 1016.24 1016.61 1016.97
1006.49 1007.34 1008.02 1008.52 1008.89 1009.16 1009.37 1009.59 1009.84 1010.15 1010.50 1010.89 1011.28 1011.63 1011.93 1012.15 1012.29 1012.37 1012.42 1012.47 1012.53 1012.64 1012.76 1012.90 1013.03 1013.12 1013.16 1013.16 1013.13 1013.11 1013.14 1013.24 1013.44 1013.71 1014.03 1014.37 1014.69 1014.94 1015.13 1015.24 1015.31 1015.37 1015.46 1015.61 1015.83 1016.12 1016.46 1016.82 1017.17
1006.29 1006.94 1007.45 1007.85 1008.19 1008.51 1008.84 1009.20 1009.60 1010.03 1010.47 1010.90 1011.29 1011.61 1011.87 1012.07 1012.20 1012.31 1012.41 1012.53 1012.67 1012.84 1013.02 1013.19 1013.33 1013.41 1013.44 1013.43 1013.40 1013.39 1013.43 1013.56 1013.78 1014.08 1014.43 1014.79 1015.12 1015.38 1015.57 1015.68 1015.73 1015.78 1015.84 1015.96 1016.16 1016.42 1016.73 1017.06 1017.39
1006.29 1006.78 1007.15 1007.48 1007.80 1008.16 1008.57 1009.03 1009.52 1010.01 1010.48 1010.89 1011.24 1011.52 1011.73 1011.89 1012.02 1012.15 1012.30 1012.48 1012.69 1012.91 1013.14 1013.34 1013.50 1013.60 1013.64 1013.65 1013.64 1013.66 1013.73 1013.89 1014.13 1014.44 1014.80 1015.17 1015.51 1015.79 1015.98 1016.10 1016.17 1016.21 1016.27 1016.38 1016.54 1016.77 1017.05 1017.36 1017.67
1006.52 1006.87 1007.15 1007.42 1007.73 1008.12 1008.58 1009.09 1009.61 1010.11 1010.55 1010.91 1011.19 1011.39 1011.54 1011.67 1011.80 1011.95 1012.13 1012.36 1012.61 1012.88 1013.14 1013.37 1013.56 1013.69 1013.78 1013.83 1013.88 1013.94 1014.05 1014.23 1014.48 1014.79 1015.14 1015.49 1015.83 1016.11 1016.33 1016.48 1016.57 1016.64 1016.72 1016.82 1016.97 1017.18 1017.43 1017.71 1017.99
1006.92 1007.17 1007.37 1007.61 1007.92 1008.33 1008.81 1009.33 1009.84 1010.29 1010.67 1010.95 1011.14 1011.28 1011.38 1011.48 1011.61 1011.77 1011.98 1012.23 1012.50 1012.78 1013.06 1013.31 1013.53 1013.72 1013.86 1013.99 1014.11 1014.23 1014.38 1014.58 1014.81 1015.09 1015.41 1015.73 1016.04 1016.33 1016.57 1016.76 1016.90 1017.02 1017.13 1017.25 1017.40 1017.59 1017.81 1018.07 1018.33
1007.38 1007.55 1007.71 1007.94 1008.26 1008.68 1009.17 1009.67 1010.14 1010.52 1010.81 1011.00 1011.12 1011.20 1011.27 1011.36 1011.49 1011.67 1011.89 1012.14 1012.41 1012.68 1012.94 1013.20 1013.45 1013.69 1013.91 1014.13 1014.33 1014.52 1014.72 1014.91 1015.12 1015.35 1015.60 1015.86 1016.14 1016.41 1016.67 1016.91 1017.11 1017.29 1017.45 1017.61 1017.78 1017.96 1018.17 1018.40 1018.65
1007.78 1007.89 1008.04 1008.28 1008.64 1009.09 1009.58 1010.05 1010.46 1010.76 1010.95 1011.05 1011.11 1011.14 1011.20 1011.31 1011.46 1011.66 1011.89 1012.12 1012.36 1012.59 1012.83 1013.07 1013.34 1013.62 1013.93 1014.23 1014.53 1014.79 1015.03 1015.22 1015.39 1015.54 1015.70 1015.89 1016.11 1016.36 1016.63 1016.92 1017.19 1017.44 1017.67 1017.87 1018.06 1018.25 1018.45 1018.67 1018.91
1008.01 1008.10 1008.27 1008.57 1008.98 1009.47 1009.97 1010.41 1010.74 1010.95 1011.05 1011.07 1011.07 1011.09 1011.16 1011.30 1011.50 1011.73 1011.96 1012.17 1012.37 1012.54 1012.72 1012.94 1013.20 1013.53 1013.90 1014.30 1014.68 1015.02 1015.29 1015.48 1015.60 1015.68 1015.74 1015.84 1015.99 1016.21 1016.49 1016.81 1017.15 1017.47 1017.77 1018.02 1018.24 1018.44 1018.64 1018.85 1019.08
1008.02 1008.12 1008.37 1008.77 1009.27 1009.82 1010.33 1010.73 1010.98 1011.09 1011.07 1011.01 1010.96 1010.97 1011.08 1011.27 1011.53 1011.81 1012.06 1012.26 1012.41 1012.52 1012.64 1012.80 1013.05 1013.40 1013.83 1014.31 1014.78 1015.19 1015.50 1015.69 1015.76 1015.76 1015.74 1015.75 1015.83 1016.01 1016.28 1016.64 1017.03 1017.42 1017.77 1018.08 1018.32 1018.53 1018.73 1018.93 1019.16
1007.82 1008.01 1008.39 1008.93 1009.56 1010.18 1010.70 1011.05 1011.20 1011.16 1011.02 1010.85 1010.74 1010.74 1010.88 1011.14 1011.48 1011.82 1012.11 1012.32 1012.43 1012.49 1012.54 1012.66 1012.88 1013.24 1013.71 1014.25 1014.80 1015.27 1015.63 1015.83 1015.88 1015.83 1015.73 1015.66 1015.68 1015.82 1016.08 1016.46 1016.89 1017.32 1017.73 1018.06 1018.33 1018.54 1018.73 1018.92 1019.15
1007.52 1007.86 1008.42 1009.15 1009.93 1010.63 1011.14 1011.41 1011.41 1011.20 1010.88 1010.56 1010.36 1010.33 1010.50 1010.83 1011.26 1011.69 1012.04 1012.28 1012.39 1012.41 1012.41 1012.47 1012.67 1013.02 1013.51 1014.10 1014.71 1015.26 1015.67 1015.89 1015.94 1015.86 1015.72 1015.60 1015.57 1015.68 1015.93 1016.31 1016.76 1017.23 1017.65 1018.00 1018.27 1018.47 1018.65 1018.83 1019.05
1007.25 1007.80 1008.60 1009.53 1010.46 1011.22 1011.70 1011.84 1011.65 1011.20 1010.65 1010.14 1009.80 1009.70 1009.88 1010.27 1010.80 1011.33 1011.78 1012.08 1012.22 1012.23 1012.21 1012.23 1012.39 1012.73 1013.23 1013.86 1014.52 1015.12 1015.59 1015.86 1015.94 1015.87 1015.72 1015.58 1015.52 1015.60 1015.84 1016.21 1016.66 1017.13 1017.56 1017.91 1018.16 1018.35 1018.50 1018.66 1018.86
1007.12 1007.92 1008.98 1010.13 1011.19 1011.99 1012.38 1012.34 1011.89 1011.16 1010.32 1009.57 1009.05 1008.86 1009.01 1009.45 1010.07 1010.72 1011.28 1011.67 1011.88 1011.93 1011.90 1011.91 1012.05 1012.36 1012.86 1013.50 1014.19 1014.85 1015.37 1015.70 1015.83 1015.80 1015.67 1015.54 1015.48 1015.56 1015.78 1016.13 1016.57 1017.02 1017.43 1017.76 1018.00 1018.16 1018.29 1018.42 1018.60
1007.20 1008.28 1009.58 1010.92 1012.08 1012.85 1013.12 1012.85 1012.11 1011.05 1009.89 1008.86 1008.13 1007.81 1007.92 1008.39 1009.09 1009.86 1010.55 1011.06 1011.36 1011.47 1011.48 1011.49 1011.61 1011.91 1012.39 1013.03 1013.74 1014.42 1015.00 1015.39 1015.59 1015.61 1015.54 1015.44 1015.40 1015.48 1015.69 1016.02 1016.44 1016.86 1017.24 1017.55 1017.76 1017.89 1017.99 1018.10 1018.26
1007.50 1008.82 1010.34 1011.81 1012.99 1013.70 1013.79 1013.27 1012.22 1010.83 1009.35 1008.04 1007.10 1006.63 1006.68 1007.15 1007.92 1008.80 1009.62 1010.26 1010.67 1010.87 1010.93 1010.97 1011.09 1011.36 1011.82 1012.44 1013.15 1013.86 1014.47 1014.92 1015.18 1015.28 1015.27 1015.22 1015.22 1015.30 1015.51 1015.83 1016.21 1016.60 1016.95 1017.23 1017.42 1017.53 1017.61 1017.70 1017.84
1007.95 1009.45 1011.09 1012.62 1013.77 1014.36 1014.26 1013.48 1012.14 1010.45 1008.69 1007.13 1005.99 1005.40 1005.38 1005.84 1006.66 1007.62 1008.55 1009.31 1009.84 1010.13 1010.27 1010.34 1010.47 1010.73 1011.17 1011.76 1012.45 1013.16 1013.79 1014.29 1014.61 1014.78 1014.84 1014.85 1014.89 1015.00 1015.20 1015.50 1015.86 1016.22 1016.55 1016.80 1016.97 1017.08 1017.15 1017.23 1017.35
1008.44 1010.02 1011.69 1013.18 1014.24 1014.67 1014.37 1013.37 1011.80 1009.89 1007.93 1006.19 1004.91 1004.21 1004.13 1004.57 1005.40 1006.42 1007.42 1008.27 1008.89 1009.28 1009.49 1009.62 1009.77 1010.03 1010.45 1011.01 1011.67 1012.36 1013.00 1013.52 1013.89 1014.12 1014.25 1014.32 1014.40 1014.54 1014.76 1015.05 1015.39 1015.73 1016.03 1016.27 1016.44 1016.55 1016.62 1016.70 1016.81
1008.85 1010.40 1011.99 1013.35 1014.26 1014.52 1014.05 1012.89 1011.18 1009.15 1007.09 1005.28 1003.93 1003.17 1003.03 1003.44 1004.25 1005.26 1006.29 1007.19 1007.88 1008.34 1008.62 1008.81 1009.00 1009.27 1009.68 1010.21 1010.85 1011.51 1012.14 1012.68 1013.08 1013.36 1013.54 1013.67 1013.80 1013.97 1014.20 1014.50 1014.82 1015.16 1015.45 1015.69 1015.87 1015.98 1016.06 1016.14 1016.25
1009.09 1010.49 1011.90 1013.06 1013.77 1013.86 1013.27 1012.03 1010.29 1008.27 1006.24 1004.46 1003.12 1002.35 1002.17 1002.52 1003.26 1004.22 1005.21 1006.10 1006.81 1007.32 1007.66 1007.90 1008.14 1008.45 1008.87 1009.39 1010.00 1010.65 1011.26 1011.80 1012.22 1012.54 1012.77 1012.95 1013.13 1013.33 1013.59 1013.89 1014.23 1014.56 1014.86 1015.10 1015.29 1015.42 1015.51 1015.59 1015.69
1009.14 1010.30 1011.44 1012.34 1012.83 1012.77 1012.11 1010.89 1009.23 1007.34 1005.44 1003.78 1002.52 1001.77 1001.56 1001.82 1002.45 1003.29 1004.18 1005.00 1005.68 1006.20 1006.59 1006.91 1007.21 1007.57 1008.02 1008.56 1009.17 1009.80 1010.40 1010.94 1011.37 1011.72 1011.99 1012.22 1012.44 1012.69 1012.98 1013.30 1013.65 1013.99 1014.30 1014.56 1014.75 1014.89 1014.99 1015.06 1015.14
Thickness
5841 5839 5834 5820 5795 5771 5765 5777 5786 5785 5783 5788 5790 5784 5772 5764 5755 5745 5764 5772 5773 5772 5773 5773 5774 5774 5775 5775 5774 5775 5775 5776 5776 5775 5775 5775 5776 5776 5776 5776 5775 5774 5773 5771 5769 5768 5766 5765 5764
5845 5841 5829 5809 5778 5755 5762 5782 5784 5787 5790 5794 5790 5784 5774 5767 5771 5767 5768 5771 5773 5772 5772 5772 5773 5773 5773 5773 5773 5773 5774 5774 5774 5774 5773 5774 5774 5775 5775 5774 5773 5773 5771 5769 5768 5766 5765 5763 5762
5848 5843 5818 5795 5774 5763 5769 5786 5790 5795 5800 5797 5787 5783 5775 5768 5772 5770 5772 5774 5772 5772 5772 5772 5772 5772 5772 5772 5772 5772 5772 5773 5773 5772 5772 5772 5772 5773 5773 5773 5772 5771 5770 5768 5766 5765 5763 5761 5760
5845 5829 5812 5788 5777 5788 5792 5795 5800 5796 5796 5795 5787 5775 5776 5781 5778 5776 5776 5775 5772 5771 5771 5771 5771 5771 5771 5771 5771 5771 5771 5771 5771 5771 5770 5770 5771 5772 5773 5771 5770 5769 5768 5766 5765 5764 5762 5760 5759
5843 5817 5792 5779 5785 5799 5806 5808 5807 5796 5790 5788 5785 5771 5769 5781 5783 5780 5777 5775 5773 5771 5771 5771 5771 5771 5771 5770 5770 5771 5771 5770 5770 5769 5769 5769 5769 5770 5770 5769 5768 5767 5766 5765 5763 5762 5760 5759 5758
5828 5809 5781 5773 5787 5802 5808 5812 5807 5795 5788 5787 5782 5772 5768 5781 5780 5779 5778 5775 5774 5772 5772 5772 5771 5771 5770 5770 5770 5771 5770 5770 5769 5768 5768 5767 5768 5768 5768 5767 5766 5765 5764 5763 5762 5761 5759 5758 5757
5823 5803 5788 5787 5791 5796 5807 5815 5807 5796 5789 5789 5788 5771 5770 5777 5782 5782 5779 5777 5775 5774 5772 5772 5771 5770 5770 5770 5770 5770 5770 5769 5768 5768 5767 5766 5766 5766 5765 5765 5765 5764 5763 5762 5761 5760 5758 5757 5756
5840 5812 5795 5793 5792 5796 5813 5817 5813 5804 5795 5801 5795 5774 5768 5778 5785 5783 5780 5777 5775 5774 5773 5772 5771 5770 5770 5770 5770 5770 5770 5769 5768 5767 5767 5766 5765 5764 5764 5764 5764 5763 5762 5761 5760 5759 5757 5756 5756
5850 5808 5791 5798 5799 5802 5817 5813 5812 5815 5805 5800 5799 5790 5787 5790 5788 5782 5776 5774 5773 5773 5773 5772 5772 5770 5770 5769 5770 5769 5769 5768 5767 5766 5766 5765 5764 5763 5763 5763 5762 5761 5761 5760 5759 5758 5757 5756 5755
5839 5805 5807 5822 5822 5816 5818 5815 5811 5803 5794 5790 5790 5792 5794 5791 5786 5779 5774 5772 5771 5771 5772 5773 5772 5771 5770 5770 5769 5768 5768 5768 5767 5766 5765 5764 5763 5762 5762 5762 5762 5760 5759 5759 5758 5757 5756 5755 5754
5841 5824 5831 5835 5835 5829 5820 5817 5817 5800 5786 5789 5788 5788 5790 5787 5783 5779 5777 5775 5774 5773 5773 5773 5773 5772 5771 5770 5769 5768 5768 5768 5767 5765 5765 5763 5762 5761 5761 5761 5760 5759 5758 5757 5757 5756 5755 5755 5755
5845 5843 5845 5840 5841 5833 5825 5820 5812 5805 5799 5804 5802 5798 5792 5786 5782 5780 5778 5777 5776 5775 5775 5775 5774 5773 5772 5771 5770 5769 5768 5767 5766 5765 5764 5763 5761 5760 5760 5759 5759 5758 5757 5757 5756 5756 5755 5755 5755
5843 5842 5847 5846 5843 5838 5831 5820 5814 5807 5811 5810 5805 5799 5793 5789 5785 5785 5784 5782 5779 5777 5776 5776 5776 5774 5773 5772 5770 5769 5768 5767 5766 5765 5765 5764 5762 5760 5759 5759 5758 5757 5757 5757 5756 5756 5756 5756 5755
5847 5846 5843 5841 5837 5835 5826 5818 5813 5806 5813 5808 5802 5797 5795 5791 5788 5785 5783 5781 5780 5779 5778 5778 5777 5776 5775 5773 5771 5769 5768 5767 5766 5765 5765 5764 5763 5761 5760 5759 5758 5758 5757 5757 5756 5756 5756 5755 5754
5853 5837 5830 5833 5834 5830 5825 5804 5806 5812 5812 5805 5801 5799 5796 5793 5791 5788 5786 5784 5783 5782 5781 5780 5779 5778 5776 5774 5772 5771 5770 5769 5767 5766 5766 5765 5764 5763 5761 5760 5759 5758 5758 5758 5757 5756 5756 5755 5754
5839 5821 5807 5822 5831 5830 5815 5785 5806 5815 5810 5801 5801 5800 5796 5794 5794 5793 5791 5789 5787 5785 5782 5782 5782 5778 5776 5775 5774 5772 5771 5770 5769 5768 5767 5765 5764 5763 5762 5760 5759 5759 5758 5758 5757 5756 5754 5753 5751
5814 5799 5801 5814 5831 5829 5813 5794 5808 5816 5810 5803 5802 5801 5798 5795 5794 5795 5795 5793 5790 5788 5785 5782 5782 5779 5777 5776 5775 5774 5773 5772 5771 5769 5768 5766 5765 5764 5762 5761 5760 5759 5758 5758 5757 5755 5754 5751 5750
5800 5801 5805 5809 5825 5826 5812 5806 5813 5816 5812 5807 5805 5803 5799 5796 5795 5798 5797 5796 5794 5791 5788 5785 5783 5781 5779 5777 5775 5774 5773 5772 5772 5771 5769 5768 5767 5765 5763 5761 5760 5760 5758 5757 5756 5755 5754 5752 5751
5823 5814 5808 5817 5833 5822 5812 5809 5812 5816 5812 5807 5805 5803 5800 5799 5801 5801 5800 5798 5795 5792 5789 5786 5783 5782 5780 5777 5774 5771 5770 5771 5771 5771 5770 5769 5767 5766 5764 5762 5761 5760 5758 5757 5757 5755 5752 5750 5750
5826 5812 5810 5819 5831 5821 5808 5806 5812 5817 5815 5814 5810 5806 5803 5799 5799 5800 5799 5798 5795 5792 5790 5788 5786 5784 5782 5780 5777 5775 5773 5771 5771 5771 5770 5769 5768 5766 5765 5763 5761 5760 5758 5757 5756 5754 5751 5749 5749
5821 5815 5814 5813 5821 5821 5806 5793 5800 5811 5817 5816 5815 5813 5810 5806 5801 5800 5799 5798 5796 5793 5792 5791 5788 5786 5784 5783 5780 5777 5774 5771 5769 5768 5768 5769 5768 5767 5766 5764 5762 5761 5759 5756 5755 5754 5751 5747 5747
5811 5832 5830 5822 5803 5788 5796 5767 5789 5802 5806 5811 5813 5813 5810 5811 5808 5804 5802 5799 5798 5797 5796 5793 5791 5788 5785 5783 5780 5775 5770 5766 5767 5768 5768 5769 5769 5768 5766 5765 5763 5761 5759 5756 5755 5755 5752 5749 5744
5827 5841 5832 5823 5804 5787 5788 5771 5780 5798 5795 5807 5815 5817 5816 5814 5812 5809 5807 5805 5803 5801 5798 5795 5792 5789 5787 5785 5781 5776 5772 5769 5769 5769 5768 5768 5768 5767 5766 5765 5764 5762 5759 5757 5756 5754 5752 5750 5746
5842 5828 5816 5802 5786 5766 5782 5772 5773 5792 5805 5812 5818 5822 5821 5820 5818 5814 5812 5808 5804 5802 5799 5796 5792 5789 5788 5785 5782 5778 5773 5770 5768 5767 5766 5766 5766 5766 5766 5765 5763 5762 5760 5757 5756 5754 5752 5750 5748
5826 5793 5764 5759 5749 5756 5784 5780 5785 5816 5828 5829 5827 5827 5826 5824 5821 5815 5811 5807 5804 5802 5799 5796 5792 5789 5788 5785 5782 5779 5776 5772 5769 5767 5766 5764 5763 5763 5764 5763 5762 5760 5759 5757 5755 5753 5751 5749 5746
5812 5793 5761 5747 5745 5757 5778 5777 5801 5832 5838 5838 5836 5834 5831 5825 5823 5818 5815 5811 5808 5805 5802 5797 5793 5790 5788 5785 5782 5780 5777 5774 5771 5769 5767 5765 5764 5763 5763 5762 5760 5759 5758 5756 5754 5751 5749 5747 5745
5808 5794 5793 5767 5761 5755 5764 5785 5808 5829 5829 5831 5830 5829 5827 5827 5824 5820 5817 5814 5810 5807 5804 5801 5796 5791 5788 5785 5782 5779 5777 5774 5772 5769 5768 5766 5764 5763 5762 5761 5759 5757 5756 5754 5751 5748 5746 5744 5742
5820 5807 5778 5761 5745 5741 5758 5770 5782 5805 5815 5822 5824 5824 5826 5827 5825 5822 5819 5817 5814 5810 5807 5803 5798 5793 5789 5786 5783 5780 5776 5775 5773 5770 5767 5765 5764 5763 5761 5759 5757 5755 5753 5751 5748 5745 5742 5740 5738
5805 5799 5778 5758 5756 5741 5740 5763 5811 5813 5820 5822 5825 5827 5827 5827 5825 5823 5821 5819 5816 5811 5806 5802 5798 5794 5789 5785 5782 5780 5776 5774 5772 5769 5767 5765 5763 5761 5759 5757 5754 5752 5749 5747 5744 5741 5738 5736 5733
5809 5798 5779 5759 5753 5750 5746 5765 5825 5824 5826 5827 5826 5828 5828 5828 5827 5824 5821 5817 5813 5809 5806 5802 5797 5792 5790 5786 5782 5778 5775 5773 5769 5767 5765 5763 5761 5759 5756 5754 5751 5748 5745 5743 5739 5736 5735 5731 5728